TimeEDT,TemperatureF,Dew PointF,Humidity,Sea Level PressureIn,VisibilityMPH,Wind Direction,Wind SpeedMPH,Gust SpeedMPH,PrecipitationIn,Events,Conditions,WindDirDegrees,DateUTC
12:53 AM,75.9,73.9,94,29.94,4.0,SSW,3.5,-,N/A,,Clear,200,2013-07-19 04:53:00
1:53 AM,75.0,73.0,94,29.94,3.0,SSW,5.8,-,N/A,,Clear,210,2013-07-19 05:53:00
2:53 AM,73.9,73.0,97,29.93,3.0,SW,4.6,-,N/A,,Clear,220,2013-07-19 06:53:00
3:53 AM,75.0,73.9,96,29.93,4.0,SSW,3.5,-,N/A,,Clear,210,2013-07-19 07:53:00
4:34 AM,73.4,73.4,100,29.92,2.5,SSW,3.5,-,N/A,,Clear,210,2013-07-19 08:34:00
4:53 AM,73.9,73.0,97,29.91,3.0,Calm,Calm,-,N/A,,Clear,0,2013-07-19 08:53:00
5:33 AM,73.4,73.4,100,29.92,1.8,SSW,3.5,-,N/A,,Clear,210,2013-07-19 09:33:00
5:53 AM,73.9,73.0,97,29.91,1.2,SSW,4.6,-,N/A,,Clear,210,2013-07-19 09:53:00
6:21 AM,75.2,73.4,94,29.91,2.0,SW,3.5,-,N/A,,Clear,220,2013-07-19 10:21:00
6:33 AM,75.2,73.4,94,29.91,3.0,SSW,3.5,-,N/A,,Clear,210,2013-07-19 10:33:00
6:53 AM,75.9,73.9,94,29.91,3.0,SSW,3.5,-,N/A,,Clear,200,2013-07-19 10:53:00
7:53 AM,81.0,75.9,85,29.91,6.0,WSW,8.1,-,N/A,,Haze,240,2013-07-19 11:53:00
8:53 AM,84.9,75.9,74,29.90,9.0,SW,9.2,-,N/A,,Clear,230,2013-07-19 12:53:00
9:53 AM,89.1,77.0,67,29.89,10.0,WSW,8.1,-,N/A,,Clear,240,2013-07-19 13:53:00
10:53 AM,90.0,77.0,65,29.88,10.0,SW,9.2,-,N/A,,Clear,220,2013-07-19 14:53:00
11:53 AM,91.9,77.0,62,29.87,10.0,West,6.9,-,N/A,,Clear,280,2013-07-19 15:53:00
12:53 PM,91.9,77.0,62,29.86,10.0,SW,10.4,19.6,N/A,,Clear,230,2013-07-19 16:53:00
1:53 PM,91.9,75.9,59,29.83,10.0,SW,16.1,-,N/A,,Clear,220,2013-07-19 17:53:00
2:53 PM,91.9,75.9,59,29.81,10.0,SW,18.4,24.2,N/A,,Clear,220,2013-07-19 18:53:00
3:53 PM,89.1,77.0,67,29.79,8.0,SSW,16.1,-,N/A,,Clear,210,2013-07-19 19:53:00
4:53 PM,88.0,77.0,70,29.78,8.0,SW,15.0,-,N/A,,Clear,220,2013-07-19 20:53:00
5:53 PM,84.9,75.0,72,29.77,7.0,SW,16.1,28.8,N/A,,Clear,220,2013-07-19 21:53:00
6:53 PM,82.9,73.9,74,29.78,7.0,SW,16.1,28.8,N/A,,Clear,220,2013-07-19 22:53:00
7:53 PM,80.1,73.0,79,29.78,7.0,SW,15.0,25.3,N/A,,Clear,230,2013-07-19 23:53:00
8:53 PM,79.0,73.0,82,29.79,7.0,SW,13.8,21.9,N/A,,Clear,220,2013-07-20 00:53:00
9:53 PM,78.1,72.0,81,29.81,8.0,SW,12.7,20.7,N/A,,Clear,230,2013-07-20 01:53:00
10:53 PM,78.1,72.0,81,29.80,7.0,SW,9.2,-,N/A,,Clear,230,2013-07-20 02:53:00
11:53 PM,77.0,72.0,84,29.79,7.0,SW,8.1,-,N/A,,Clear,230,2013-07-20 03:53:00